Regional Weather Roundup
Issued by NWS

Home | Current Version | Previous Version | Graphics & Text | Print | Product List | Glossary Off
Versions: 1 2 3 4 5 6 7 8 9 10 11 12 13 14 15 16 17 18 19 20 21 22 23 24 25 26 27 28 29 30 31 32 33 34 35 36 37 38 39 40 41 42 43 44 45 46 47 48 49 50

563
ASUS43 KDMX 141906
RWRIA

WEATHER ROUNDUP FOR IOWA
NATIONAL WEATHER SERVICE DES MOINES IA
100 PM CST THU DEC 14 2017

NOTE: "FAIR" INDICATES FEW OR NO CLOUDS BELOW 12,000 FEET WITH NO
SIGNIFICANT WEATHER AND/OR OBSTRUCTIONS TO VISIBILITY.

* - THESE STATIONS ARE NOT NWS STATIONS...THUS NOT UNDER NWS
QUALITY CONTROL.  THEY ALSO DO NOT REPORT WEATHER SUCH
AS PRECIPITATION OR FOG.

IAZ001>003-012>014-020>022-031>034-043>046-142000-
   NORTHWEST IOWA

CITY           SKY/WX    TMP DP  RH WIND       PRES   REMARKS
CARROLL *      CLOUDY    32  23  69 NW5       30.04F WCI  27
CHEROKEE *     CLOUDY    32  28  83 W5        30.05F WCI  27
DENISON *      CLOUDY    34  25  69 W3        30.06S
LE MARS *      CLOUDY    36  25  64 N10       30.05S WCI  28
ORANGE CITY *  CLOUDY    34  28  80 N6        30.04S WCI  29
SHELDON *      CLOUDY    34  27  75 NW7       30.02F WCI  28
SIOUX CITY     PTSUNNY   38  25  59 NW9       30.06S WCI  31
SPENCER        CLOUDY    31  23  72 W8        30.03F WCI  23
STORM LAKE *     N/A     30  25  80 W8        30.03F WCI  23
$$

IAZ055>058-069>071-079>083-090>094-142000-
   SOUTHWEST IOWA

CITY           SKY/WX    TMP DP  RH WIND       PRES   REMARKS
ATLANTIC *     CLOUDY    32  25  74 CALM      30.06S
AUDUBON *      CLOUDY    30  27  86 CALM      30.05F
CLARINDA *     CLOUDY    36  27  69 CALM        N/A
COUNCIL BLFS * CLOUDY    39  27  60 N7G13     30.05S WCI  34
CRESTON *      CLOUDY    32  23  69 CALM      30.06F
HARLAN  *      CLOUDY    36  27  69 CALM      30.08F
LAMONI         CLOUDY    33  20  58 W7        30.06S WCI  27
RED OAK *      CLOUDY    37  27  65 CALM      30.06F
SHENANDOAH *   PTSUNNY   41  25  52 W6        30.06F
$$

IAZ047>049-059>061-072>074-084-142000-
   CENTRAL IOWA

CITY           SKY/WX    TMP DP  RH WIND       PRES   REMARKS
AMES           CLOUDY    30  19  63 NW8       30.06F WCI  22
ANKENY *       PTSUNNY   30  18  59 VRB5      30.07F WCI  25
BOONE *        CLOUDY    28  19  69 NW6       30.04S WCI  22
CHARITON *     CLOUDY    32  19  59 N8        30.05F WCI  25
DES MOINES     CLOUDY    32  18  56 NW8       30.06F WCI  25
GRINNELL*      CLOUDY    26  18  70 W5        30.07S WCI  20
KNOXVILLE *    CLOUDY    28  16  59 N9        30.05F WCI  20
MARSHALLTOWN   CLOUDY    26  16  65 W6        30.05F WCI  19
NEWTON *       CLOUDY    27  16  63 VRB6      30.06F WCI  20
PELLA *        CLOUDY    29  17  59 CALM      30.08F
PERRY *        CLOUDY    30  19  63 NW5       30.06F WCI  25
$$

IAZ004>006-015-016-023>025-035-036-142000-
   NORTH CENTRAL IOWA

CITY           SKY/WX    TMP DP  RH WIND       PRES   REMARKS
ALGONA *       CLOUDY    28  21  74 W8        30.04R WCI  20
CLARION *      CLOUDY    28  21  74 NW7       30.04F WCI  21
ESTHERVILLE    CLOUDY    28  21  75 NW9       30.03S WCI  19
FORT DODGE *   CLOUDY    30  21  69 W6        30.05S WCI  24
MASON CITY     CLOUDY    24  16  71 NW9       30.05R WCI  14
FOREST CITY *  CLOUDY    27  19  74 NW9       30.04R WCI  17
WEBSTER CITY * CLOUDY    30  19  64 W8        30.02F WCI  23
IOWA FALLS *   CLOUDY    27  19  71 NW9       30.05F WCI  18
$$

IAZ007>011-017>019-026>030-037>042-050>054-066-142000-
   NORTHEAST IOWA

CITY           SKY/WX    TMP DP  RH WIND       PRES   REMARKS
CEDAR RAPIDS   PTSUNNY   26  17  68 VRB6      30.06S WCI  19
CHARLES CITY * CLOUDY    25  16  68 W10       30.04F WCI  15
CLINTON *      SUNNY     26  13  57 SW5       30.07F WCI  20
DECORAH *      MOSUNNY   25  14  63 S7        30.03S WCI  17
DUBUQUE        SUNNY     24  11  57 VRB3      30.04F
MONTICELLO *   MOSUNNY   27  16  63 CALM      30.05F
OELWEIN *      MOSUNNY   25  18  74 W7        30.05F WCI  17
WATERLOO       PTSUNNY   26  15  63 W8        30.06F WCI  18
$$

IAZ064-065-067-068-078-142000-
   EAST CENTRAL IOWA

CITY           SKY/WX    TMP DP  RH WIND       PRES   REMARKS
DAVENPORT      CLOUDY    26  15  63 CALM      30.08F
IOWA CITY      PTSUNNY   27  16  63 CALM      30.09F
MT. PLEASANT * CLOUDY    28  15  60 CALM      30.08S
MUSCATINE *    PTSUNNY   28  16  59 SW7       30.08F WCI  21
QUAD CITIES    MOSUNNY   28  15  58 CALM      30.07F
$$

IAZ062-063-075>077-085>089-095>099-142000-
   SOUTHEAST IOWA

CITY           SKY/WX    TMP DP  RH WIND       PRES   REMARKS
BURLINGTON     CLOUDY    28  17  63 CALM      30.07F
FAIRFIELD *    CLOUDY    27  14  59 CALM      30.07F
FORT MADISON * MOSUNNY   28  18  64 CALM      30.07F
KEOKUK *       CLOUDY    30  18  59 VRB3      30.07F
OSKALOOSA *    CLOUDY    27  18  68 W5        30.07F WCI  21
OTTUMWA        CLOUDY    27  16  63 CALM      30.06F
WASHINGTON *   CLOUDY    27  18  69 W3        30.08F
$$

ABBREVIATIONS USED IN REMARKS
   TC - TEMPERATURES IN CELSIUS
  WCI - WIND CHILL INDEX
   HX - HEAT INDEX
  VSB - VISIBILITY
$$





USA.gov is the U.S. government's official web portal to all federal, state and local government web resources and services.